Weather in Storozhinets

Ukraine / Chernovtci District     48°09′34″N   25°43′20″E
temp.,
°C
wind,
m/s
gust,
m/s
humid.,
%
clouds,
%
prec.,
mm/h
press.,
hPa
HPBL,
m
6 may, thu
thu600:00+11ssw337265 0.1 100427
03:00+9nw5889100 0.4 1006422
06:00+6wnw51093100 0.3 1009484
09:00+7nw51084100 0.4 1013879
12:00+11nw4663100 0.0 10141132
15:00+14n2452100 0.1 10131321
18:00+15nw3649100 0.3 10121663
21:00+8wsw116686 0.3 101410
7 may, fri
fri700:00+7sse227233 0.0 101415
03:00+6se228537 0.0 101313
06:00+7se347816 0.1 101185
09:00+11sse3566100 0.1 1009273
12:00+14s6865100 0.0 1008783
15:00+14sw3671100 0.0 1007290
18:00+13w3673100 0.0 1006191
21:00+10wsw368174 0.2 1009157
8 may, sat
sat800:00+9w2285100 0.0 101030
03:00+7nw71275100 0.2 10131025
06:00+5nw71375100 0.1 10161166
09:00+7nw911584 0.1 10181035
12:00+9nnw895569 0.0 10191664
15:00+11nnw795045 0.0 10191792
18:00+10nnw795114 0.0 10201655
21:00+5w22775 0.0 102210
9 may, sun
sun900:00+4sw22813 0.0 102413
03:00+3sw22835 0.0 102511
06:00+2sw118110 0.0 102610
09:00+9s22604 0.0 1026311
12:00+14se334442 0.0 10251607
15:00+16ese444366 0.0 10241548
18:00+15ese455419 0.0 10231187
21:00+9se36735 0.0 102581
10 may, mon
mon1000:00+7se35785 0.0 102563
03:00+5se348636 0.0 102565
06:00+4se34905 0.0 102456
09:00+11se47685 0.0 1024404
12:00+17se810535 0.0 1023929
15:00+19se910475 0.0 10221209
18:00+17se811562 0.0 1021900
21:00+13se614620 0.0 1022461